Location: Keppel Henge
(44.7900°N, 80.9447°W)
Time: 21:25:12
(UTC-05:00)

Vanguard 2 - All Passes

Search period start: 10 December 2017 00:00
Search period end: 20 December 2017 00:00
Orbit: 553 x 2939 km, 32.9° (Epoch: 09 December)

Date Brightness Start Highest point End Pass type
(mag) Time Alt. Az. Time Alt. Az. Time Alt. Az.
10 Dec - 17:22:58 10° SSW 17:26:04 16° S 17:28:44 10° SE visible
10 Dec - 19:31:06 10° SW 19:33:34 15° S 19:35:58 10° SSE visible
11 Dec - 15:33:25 10° S 15:36:06 13° SSE 15:38:24 10° SE daylight
11 Dec - 17:40:30 10° SW 17:43:57 18° S 17:46:52 10° SE visible
11 Dec - 19:49:20 10° SW 19:51:23 13° SSW 19:53:23 10° SSE visible
12 Dec - 15:49:58 10° SSW 15:54:02 16° S 15:57:17 10° SE daylight
12 Dec - 17:58:15 10° SW 18:01:49 19° S 18:04:49 10° SE visible
12 Dec - 20:08:14 10° SSW 20:09:11 11° SSW 20:10:07 10° S visible
13 Dec - 14:01:01 10° S 14:03:39 12° SSE 14:05:58 10° SE daylight
13 Dec - 16:07:10 10° SW 16:11:58 20° S 16:15:38 10° SE daylight
13 Dec - 18:16:11 10° SW 18:19:39 19° S 18:22:35 10° SE visible
14 Dec - 14:16:37 10° SSW 14:21:38 16° SSE 14:25:35 10° SE daylight
14 Dec - 16:24:41 10° SW 16:29:54 23° S 16:33:46 10° SE daylight
14 Dec - 18:34:18 10° SW 18:37:27 17° SSW 18:40:11 10° SSE visible
15 Dec - 14:33:18 10° SSW 14:39:37 21° SSE 14:44:14 10° ESE daylight
15 Dec - 16:42:26 10° SW 16:47:48 24° S 16:51:43 10° SE daylight
15 Dec - 18:52:40 10° SW 18:55:12 14° SSW 18:57:29 10° SSE visible
16 Dec - 12:43:28 10° S 12:48:46 14° SSE 12:53:04 10° SE daylight
16 Dec - 14:50:29 10° SW 14:57:36 25° S 15:02:34 10° ESE daylight
16 Dec - 17:00:20 10° WSW 17:05:39 25° S 17:09:34 10° SE daylight
16 Dec - 19:11:42 10° SW 19:12:54 11° SSW 19:14:03 10° S visible
17 Dec - 12:59:19 10° SSW 13:06:46 19° SSE 13:12:19 10° ESE daylight
17 Dec - 15:08:00 10° SW 15:15:33 28° S 15:20:40 10° ESE daylight
17 Dec - 17:18:23 10° WSW 17:23:28 23° SSW 17:27:15 10° SE visible
18 Dec - 11:11:59 10° SSE 11:15:22 11° SSE 11:18:26 10° SE daylight
18 Dec - 13:15:58 10° SSW 13:24:45 24° SSE 13:30:56 10° ESE daylight
18 Dec - 15:25:42 10° WSW 15:33:29 31° S 15:38:39 10° ESE daylight
18 Dec - 17:36:34 10° WSW 17:41:13 21° SSW 17:44:48 10° SSE visible
19 Dec - 11:25:55 10° S 11:33:21 16° SSE 11:39:19 10° ESE daylight
19 Dec - 13:33:05 10° SW 13:42:45 29° SSE 13:49:15 10° ESE daylight
19 Dec - 15:43:36 10° WSW 15:51:22 32° S 15:56:32 10° SE daylight
19 Dec - 17:54:58 10° WSW 17:58:54 17° SSW 18:02:05 10° SSE visible
